Wind_Speed
8 9 9 9 8 7 7 6 6 5 5 6 5 4 4 3 2 2 2 2 2 2 2 3 3 3 3 2 1 3 4 7 4 3 3 2 4 3 4 4 3 3 3 0 6 3 3
8 8 9 8 8 7 7 6 5 5 5 5 5 5 4 3 3 3 3 3 2 2 2 3 4 5 4 3 3 3 7 6 5 4 2 4 3 8 11 7 3 7 3 3 3 3 3
7 8 8 8 8 8 7 6 5 5 5 5 6 5 4 4 3 3 3 3 3 2 3 3 4 5 5 4 5 4 5 4 4 3 5 6 8 10 7 4 10 3 2 4 1 4 2
8 8 8 8 8 8 7 7 7 5 5 5 6 6 5 4 4 4 3 3 2 1 3 4 4 4 4 7 7 4 3 3 3 5 6 6 13 7 3 8 8 6 5 5 1 10 2
9 8 7 8 7 7 8 8 7 6 5 5 6 5 5 4 3 3 3 1 1 1 3 4 4 3 3 8 9 7 4 3 1 3 6 9 7 5 5 4 6 6 4 5 4 6 3
9 8 7 7 7 7 8 8 8 7 7 6 6 5 5 4 3 1 1 2 2 2 3 3 3 2 4 3 8 5 6 5 1 5 1 4 6 4 4 6 2 6 6 5 4 5 4
8 9 8 8 7 8 8 8 9 7 7 7 6 5 5 4 2 2 4 3 1 0 4 4 2 2 1 1 8 6 8 8 2 2 3 6 6 1 5 3 5 5 3 4 5 4 3
8 8 9 8 8 8 8 8 9 9 8 7 6 6 4 3 0 3 6 6 6 2 5 5 10 11 10 5 2 5 9 6 3 2 2 6 2 4 5 4 5 4 1 4 4 2 6
9 9 9 9 9 8 8 9 9 9 8 8 7 5 4 2 3 6 9 6 5 3 2 3 5 6 3 6 3 8 12 6 4 3 2 4 5 4 1 4 9 3 1 4 5 2 3
10 10 9 9 10 10 9 10 10 10 9 8 7 5 3 2 5 4 6 6 5 1 4 3 3 4 8 5 1 9 12 7 2 6 5 4 3 1 3 3 4 4 3 5 4 4 3
10 11 11 11 11 11 11 10 11 11 10 9 7 6 4 7 5 5 0 3 3 1 4 4 4 4 10 6 4 6 14 10 7 4 6 6 2 1 4 5 5 8 4 3 2 2 3
12 11 12 12 12 12 12 12 12 11 10 9 8 6 5 6 7 6 1 1 1 5 3 3 6 5 5 2 0 5 6 3 3 4 3 6 3 3 7 2 5 2 1 7 4 3 3
12 12 12 13 13 13 13 13 13 12 11 9 7 7 7 8 8 5 3 3 5 3 3 4 4 4 3 4 2 3 5 3 5 4 2 5 4 3 3 1 2 6 7 4 5 5 4
12 13 13 13 14 14 14 14 14 13 11 8 7 7 7 8 10 4 4 4 3 3 5 2 4 3 6 5 2 3 5 3 2 5 3 3 6 2 2 2 5 4 6 5 1 1 5
13 14 14 15 14 15 15 15 15 14 10 7 6 6 5 8 12 6 3 2 6 5 1 5 4 5 2 1 3 2 6 7 7 8 6 4 4 4 2 2 4 2 4 3 7 2 2
13 14 15 16 16 15 16 16 15 14 10 5 4 2 3 9 13 8 4 5 4 4 4 2 5 4 7 4 4 5 6 3 5 13 6 5 2 1 4 3 9 3 6 4 4 1 3
13 14 15 17 17 16 16 17 16 13 10 3 0 2 4 14 14 6 3 6 5 8 6 6 5 5 5 6 7 5 6 3 5 5 5 6 3 5 3 4 2 4 3 7 5 3 5
13 14 15 17 17 16 16 17 17 13 9 1 1 2 10 20 4 1 3 5 4 5 2 3 4 2 7 6 4 4 8 5 4 10 8 3 5 2 2 4 3 3 3 4 5 4 0
13 13 15 16 16 16 16 18 17 15 8 1 2 4 13 5 3 2 4 4 4 3 3 4 2 2 3 4 5 5 4 3 3 4 8 7 2 3 6 6 5 6 2 5 4 3 3
13 13 14 15 16 16 16 17 18 16 5 3 1 2 4 5 1 5 0 4 4 4 6 5 2 1 3 4 5 4 3 5 3 5 8 6 4 6 7 6 4 3 3 3 3 3 3
12 12 13 14 15 15 16 16 17 15 3 1 0 1 3 3 4 4 2 2 3 5 4 3 1 4 6 3 3 3 3 4 6 3 5 4 4 2 1 3 4 6 4 1 2 2 2
10 12 13 14 15 15 15 16 15 14 3 1 1 1 2 3 2 3 4 4 5 4 4 5 3 1 3 6 6 6 5 1 2 6 4 3 2 2 1 3 3 3 6 6 2 3 4
10 10 12 13 14 15 15 15 15 12 5 2 2 1 1 1 1 3 4 5 5 3 6 10 6 6 6 6 9 9 4 7 4 4 3 3 5 3 3 2 3 3 6 3 3 2 2
10 10 10 12 14 14 15 14 14 13 9 6 6 2 2 2 0 2 2 5 3 5 3 3 6 6 6 15 15 10 11 8 8 8 5 5 4 2 3 2 2 7 3 3 8 4 4
12 11 11 11 13 14 14 14 12 12 7 5 8 3 2 1 2 5 6 4 2 4 4 3 5 9 14 6 5 5 5 3 5 7 4 3 5 3 4 4 4 3 5 5 6 5 2
16 14 13 12 12 13 13 13 13 11 7 3 6 6 2 1 5 3 3 5 2 3 5 3 7 8 4 5 4 4 4 3 2 2 5 6 6 4 3 4 8 7 3 11 2 1 7
17 14 14 14 12 12 12 12 12 11 9 3 3 6 3 3 4 3 2 2 2 2 1 2 2 2 3 3 3 3 4 3 4 4 4 2 3 5 3 4 6 5 8 2 5 5 5
15 13 12 15 14 13 12 11 11 10 10 6 6 5 4 4 9 8 7 4 2 1 3 1 3 2 4 4 3 4 3 5 3 4 4 6 5 4 3 3 5 7 1 4 5 6 4
18 15 13 14 16 13 13 11 11 10 9 8 4 8 8 8 7 7 13 17 12 3 0 1 1 3 5 5 1 3 2 1 3 2 1 1 5 4 7 5 3 7 13 11 7 5 1
Wind_Direction
337 340 342 339 346 352 350 357 358 351 350 345 344 348 344 337 337 323 312 300 284 229 202 194 186 188 177 176 97 45 156 171 203 243 261 271 261 312 305 285 126 256 320 161 187 100 162
341 341 339 339 338 345 343 351 350 342 339 335 331 336 337 330 324 319 313 299 285 244 218 201 190 188 189 169 141 86 144 172 195 242 293 255 313 318 287 267 216 297 332 307 205 190 142
349 343 340 338 340 341 340 342 340 331 329 327 329 332 335 326 321 315 308 297 280 243 207 204 195 200 207 154 165 124 116 161 228 267 289 311 317 319 294 280 332 354 35 338 122 170 123
353 350 348 343 343 338 336 334 330 328 323 321 324 329 331 327 321 313 310 297 278 226 202 194 195 205 223 197 202 204 184 172 209 277 284 294 318 305 314 326 5 27 51 11 262 141 274
357 1 356 352 348 340 335 331 330 326 320 317 318 324 328 323 322 319 313 282 217 165 182 188 192 185 225 205 226 222 220 177 238 297 311 318 337 14 22 39 16 12 328 349 352 212 106
3 5 6 0 355 347 338 331 331 326 317 314 314 322 326 319 330 337 94 120 101 131 168 178 205 212 221 190 217 251 219 217 280 338 355 33 33 41 31 51 314 307 338 334 282 225 191
12 10 9 5 1 353 343 336 330 324 316 311 311 315 319 318 348 116 125 133 62 130 248 223 172 280 236 136 200 225 206 214 264 341 32 24 56 279 275 202 220 252 217 237 276 165 122
19 16 12 10 3 356 348 339 332 327 317 309 305 307 307 305 131 111 104 100 71 313 315 252 241 257 251 284 170 167 178 159 149 178 30 17 293 230 251 263 216 201 267 304 293 193 170
16 17 14 9 5 359 354 344 334 325 315 307 299 295 292 270 179 121 105 65 11 322 208 274 230 243 214 175 182 177 173 162 124 135 96 152 238 301 198 329 10 358 206 264 256 8 62
13 9 9 8 2 359 356 346 336 325 316 305 293 283 265 234 171 139 131 24 358 278 65 266 240 213 186 161 251 204 186 169 59 199 164 241 295 5 351 346 103 339 245 269 305 42 292
10 7 2 2 2 358 354 347 339 329 317 302 288 274 244 192 170 163 27 10 11 258 85 171 193 196 177 176 145 185 180 185 167 190 104 254 244 317 337 232 165 229 27 38 14 100 68
3 3 1 358 358 357 352 347 342 331 318 301 283 264 241 211 185 177 188 118 149 44 184 171 145 158 122 199 137 119 166 165 141 138 347 248 265 217 212 251 184 78 121 43 53 68 40
1 359 359 357 355 355 351 347 343 335 320 299 276 256 237 202 179 189 194 171 47 143 358 176 168 150 138 169 220 130 144 144 151 104 314 322 258 279 206 138 58 70 51 348 9 14 212
357 356 354 356 355 353 351 348 344 337 323 299 273 254 237 203 193 186 162 56 184 210 205 103 113 97 172 169 191 110 94 160 209 101 108 124 342 189 174 208 145 66 136 147 240 246 271
354 353 352 351 353 351 348 348 346 340 327 302 278 258 235 201 192 176 162 92 215 208 283 142 86 103 235 190 162 133 161 191 213 168 154 137 283 324 59 159 120 154 47 165 103 29 32
352 352 351 348 349 350 348 346 346 343 334 313 292 255 190 181 179 171 84 236 245 225 329 149 143 142 185 203 153 147 179 211 218 183 154 200 76 3 298 81 27 112 157 42 14 58 326
348 350 349 348 348 348 347 345 345 345 339 329 134 182 172 157 158 160 170 234 276 274 241 179 186 148 199 175 173 184 195 251 214 148 118 145 103 289 39 42 112 20 37 54 111 108 158
341 345 347 347 347 347 345 345 344 344 340 341 125 79 157 153 91 46 177 206 305 288 257 280 151 136 167 155 145 207 204 241 158 141 164 177 127 128 107 319 279 92 101 119 106 278 63
335 340 344 347 347 348 347 346 344 341 336 199 102 88 161 158 139 268 281 276 250 297 285 354 310 178 77 131 116 181 197 42 113 133 162 184 17 58 5 351 357 60 18 89 97 100 192
332 340 346 352 354 351 349 348 346 347 339 194 178 86 150 228 182 139 96 274 282 292 262 253 233 97 105 44 8 134 92 19 56 99 108 102 97 149 182 191 156 90 5 92 138 98 184
346 344 351 356 1 359 353 353 352 360 17 177 188 169 156 207 257 191 161 284 297 331 289 276 207 216 150 101 43 65 37 15 40 55 62 91 115 139 191 158 168 168 151 53 83 169 171
354 350 353 359 4 6 360 356 358 1 20 35 48 96 141 141 258 162 160 243 218 230 226 287 191 167 107 146 171 187 139 135 196 18 68 14 136 129 97 353 320 206 173 164 203 161 250
340 351 352 356 2 10 7 0 359 7 16 34 26 25 308 342 96 116 209 235 243 183 231 240 190 114 102 160 131 105 123 120 132 126 99 75 124 97 219 6 28 354 224 151 143 107 167
322 329 343 349 353 3 11 6 1 6 22 34 12 333 333 264 45 223 281 275 260 228 167 112 121 107 131 125 106 92 66 67 55 53 77 120 91 83 178 66 205 233 326 199 131 94 18
300 310 319 333 343 349 1 7 6 4 1 7 15 358 325 272 270 306 323 315 353 62 72 79 61 113 142 125 62 45 354 28 8 36 38 80 122 113 150 192 280 280 183 161 153 193 12
290 290 302 312 326 337 345 357 4 8 358 296 349 6 300 133 252 289 319 342 28 4 8 57 81 131 122 80 75 128 186 195 281 63 88 64 69 124 129 176 214 233 286 357 24 227 10
289 277 283 297 307 321 331 342 356 4 3 307 327 356 307 278 262 245 240 271 331 75 132 328 16 85 79 78 87 145 216 202 196 180 195 32 15 168 162 211 284 253 314 66 133 219 79
292 276 278 287 294 306 317 328 337 352 357 345 271 307 336 286 277 242 245 239 244 274 138 114 69 4 54 72 122 199 159 220 142 214 184 182 165 202 102 118 248 359 94 181 154 126 94
288 279 272 275 281 292 303 312 317 329 346 351 324 285 288 271 269 260 234 245 236 222 29 193 214 172 163 93 147 116 144 102 162 219 76 224 186 186 172 211 194 58 110 120 138 135 118
Height
1527 1526 1525 1525 1524 1524 1523 1522 1521 1520 1519 1519 1518 1517 1516 1516 1515 1515 1515 1514 1514 1515 1515 1515 1516 1516 1517 1518 1517 1517 1517 1518 1519 1520 1521 1522 1522 1523 1522 1518 1517 1517 1509 1510 1512 1515 1518
1526 1526 1525 1524 1523 1522 1523 1521 1520 1520 1519 1518 1517 1516 1516 1516 1515 1515 1514 1514 1513 1514 1515 1515 1516 1516 1517 1519 1518 1517 1518 1519 1520 1521 1522 1522 1523 1524 1521 1518 1515 1513 1512 1511 1511 1513 1516
1526 1525 1525 1523 1522 1521 1521 1521 1520 1519 1518 1518 1517 1516 1515 1515 1515 1514 1513 1514 1513 1513 1514 1515 1516 1516 1517 1518 1518 1518 1519 1519 1519 1521 1521 1522 1524 1524 1520 1515 1513 1513 1514 1512 1514 1515 1517
1526 1525 1524 1523 1522 1521 1520 1520 1519 1519 1518 1517 1516 1515 1515 1514 1514 1513 1513 1513 1513 1513 1514 1514 1515 1516 1516 1517 1518 1518 1519 1520 1520 1520 1521 1523 1522 1521 1518 1516 1514 1517 1518 1530 1514 1515 1517
1525 1524 1523 1522 1521 1521 1520 1519 1518 1518 1517 1516 1516 1515 1514 1513 1513 1513 1513 1512 1512 1513 1514 1514 1516 1516 1516 1516 1517 1518 1520 1520 1520 1521 1520 1520 1519 1519 1518 1522 1532 1530 1541 1531 1521 1517 1518
1525 1524 1522 1521 1521 1520 1519 1518 1517 1517 1517 1516 1515 1514 1514 1513 1513 1512 1512 1512 1512 1513 1514 1515 1515 1519 1514 1515 1515 1516 1518 1520 1520 1519 1519 1519 1520 1524 1527 1535 1557 1543 1540 1532 1530 1518 1519
1525 1523 1522 1521 1520 1519 1518 1517 1516 1515 1515 1515 1514 1513 1513 1512 1512 1512 1513 1513 1516 1516 1513 1513 1514 1513 1512 1513 1514 1515 1517 1518 1519 1520 1524 1523 1532 1539 1532 1530 1530 1531 1535 1536 1522 1514 1519
1525 1523 1523 1521 1520 1518 1517 1516 1515 1514 1514 1513 1512 1512 1512 1512 1512 1512 1512 1513 1514 1517 1513 1510 1511 1511 1511 1513 1514 1514 1516 1520 1520 1525 1524 1531 1539 1527 1526 1525 1529 1531 1532 1529 1521 1516 1519
1525 1524 1522 1521 1520 1518 1516 1515 1514 1513 1512 1511 1511 1511 1511 1511 1511 1513 1513 1514 1514 1513 1514 1509 1509 1510 1511 1513 1513 1514 1517 1518 1520 1525 1528 1536 1528 1524 1524 1525 1527 1529 1529 1528 1526 1519 1517
1527 1525 1523 1520 1519 1517 1516 1514 1513 1512 1510 1509 1509 1510 1510 1511 1514 1512 1514 1514 1513 1513 1524 1512 1509 1509 1511 1512 1513 1514 1516 1519 1521 1526 1529 1530 1523 1522 1523 1525 1528 1539 1520 1522 1522 1529 1545
1528 1525 1523 1520 1518 1516 1515 1513 1512 1510 1508 1507 1508 1508 1509 1510 1511 1512 1515 1513 1513 1514 1544 1508 1507 1507 1508 1511 1512 1512 1515 1517 1522 1524 1528 1531 1523 1523 1526 1523 1522 1531 1520 1525 1525 1535 1537
1528 1525 1523 1521 1519 1516 1514 1512 1510 1508 1506 1506 1506 1506 1508 1509 1510 1512 1512 1513 1514 1528 1532 1507 1503 1505 1508 1509 1509 1511 1514 1517 1519 1523 1525 1525 1520 1519 1519 1516 1518 1519 1522 1534 1543 1549 1565
1528 1526 1523 1521 1519 1516 1513 1511 1509 1506 1505 1504 1504 1504 1506 1507 1510 1511 1511 1513 1530 1537 1504 1509 1507 1505 1508 1511 1510 1510 1514 1520 1528 1541 1538 1528 1520 1516 1515 1519 1520 1525 1542 1572 1568 1579 1570
1529 1527 1524 1522 1519 1516 1513 1510 1507 1505 1503 1502 1501 1502 1503 1506 1508 1509 1511 1516 1531 1508 1507 1500 1503 1506 1512 1510 1511 1512 1518 1527 1520 1526 1547 1545 1545 1516 1514 1516 1522 1532 1539 1569 1569 1583 1570
1529 1527 1524 1522 1519 1516 1513 1510 1506 1504 1501 1500 1499 1500 1502 1504 1507 1509 1512 1531 1519 1507 1497 1500 1503 1511 1513 1509 1511 1512 1518 1525 1518 1518 1535 1542 1534 1513 1512 1513 1516 1530 1546 1541 1570 1578 1577
1529 1527 1524 1521 1518 1515 1512 1509 1506 1503 1500 1498 1498 1499 1501 1502 1506 1509 1514 1523 1510 1500 1497 1497 1507 1508 1520 1513 1514 1516 1520 1510 1510 1509 1512 1523 1537 1517 1517 1515 1518 1519 1531 1551 1564 1569 1566
1529 1526 1524 1521 1518 1515 1512 1508 1505 1502 1499 1498 1498 1499 1500 1502 1506 1508 1521 1518 1505 1496 1497 1498 1501 1507 1507 1509 1512 1519 1515 1506 1503 1508 1511 1521 1529 1529 1520 1527 1532 1534 1539 1554 1561 1571 1578
1528 1526 1523 1520 1517 1514 1511 1507 1504 1501 1499 1498 1498 1499 1500 1502 1507 1511 1515 1508 1502 1496 1495 1493 1493 1494 1501 1505 1512 1516 1514 1507 1501 1504 1516 1516 1534 1543 1533 1528 1525 1525 1534 1546 1564 1564 1577
1528 1525 1522 1519 1516 1513 1510 1507 1503 1500 1498 1498 1497 1499 1502 1503 1513 1514 1508 1504 1501 1497 1494 1492 1492 1490 1493 1500 1510 1508 1507 1503 1502 1504 1511 1512 1537 1556 1548 1540 1529 1533 1534 1544 1550 1558 1567
1528 1525 1522 1518 1516 1513 1510 1506 1502 1499 1497 1498 1498 1502 1504 1504 1505 1506 1506 1504 1501 1495 1494 1492 1491 1491 1495 1503 1503 1504 1505 1503 1502 1504 1504 1506 1536 1540 1555 1542 1536 1536 1534 1537 1545 1558 1557
1527 1525 1522 1519 1515 1513 1510 1506 1503 1499 1497 1498 1497 1498 1499 1506 1504 1503 1504 1504 1502 1502 1493 1490 1491 1491 1494 1504 1505 1508 1506 1504 1503 1504 1506 1511 1534 1532 1532 1528 1531 1531 1531 1532 1536 1538 1544
1526 1524 1522 1519 1516 1513 1510 1507 1504 1500 1498 1498 1497 1498 1498 1499 1499 1501 1505 1502 1501 1499 1497 1492 1492 1492 1492 1500 1501 1507 1505 1507 1508 1506 1511 1516 1536 1531 1536 1532 1532 1531 1528 1528 1530 1532 1534
1526 1524 1523 1520 1517 1513 1510 1507 1504 1501 1499 1499 1498 1498 1498 1500 1499 1501 1502 1498 1494 1493 1490 1489 1489 1493 1496 1496 1496 1498 1501 1502 1504 1508 1517 1522 1534 1543 1546 1540 1537 1546 1530 1525 1528 1529 1529
1526 1524 1522 1520 1518 1515 1511 1509 1505 1502 1501 1500 1499 1499 1498 1501 1499 1497 1496 1496 1491 1489 1489 1488 1488 1489 1495 1495 1498 1501 1502 1505 1506 1510 1511 1524 1534 1543 1549 1543 1557 1530 1521 1519 1525 1527 1528
1524 1523 1522 1520 1518 1516 1513 1510 1507 1504 1502 1502 1501 1500 1499 1500 1498 1495 1494 1492 1489 1488 1488 1490 1490 1490 1493 1496 1508 1518 1522 1513 1514 1516 1514 1515 1530 1547 1551 1557 1543 1521 1522 1523 1522 1530 1526
1521 1521 1520 1519 1517 1516 1513 1511 1508 1506 1503 1502 1502 1501 1501 1500 1497 1496 1495 1493 1494 1493 1492 1492 1493 1493 1494 1501 1513 1526 1532 1524 1524 1518 1518 1521 1523 1533 1555 1550 1555 1528 1516 1517 1517 1538 1525
1518 1517 1518 1518 1516 1515 1513 1511 1509 1506 1504 1503 1502 1502 1501 1500 1496 1495 1496 1495 1494 1494 1496 1495 1494 1495 1496 1509 1524 1529 1529 1521 1529 1525 1523 1531 1535 1538 1549 1545 1536 1518 1516 1516 1535 1536 1524
1515 1514 1514 1515 1514 1513 1512 1510 1509 1506 1504 1503 1502 1502 1502 1500 1495 1495 1495 1495 1495 1495 1497 1496 1498 1498 1501 1514 1521 1526 1527 1523 1524 1521 1520 1528 1538 1541 1546 1541 1537 1515 1517 1520 1522 1521 1522
1511 1511 1511 1512 1511 1511 1510 1509 1507 1506 1504 1503 1502 1500 1500 1499 1495 1493 1493 1493 1495 1495 1496 1496 1497 1495 1496 1508 1516 1519 1522 1526 1527 1528 1517 1528 1522 1527 1528 1528 1518 1516 1515 1516 1518 1519 1520